Flag for U.S.A. Weather past 2 weeks in Hopkinsville, Kentucky, U.S.A.

Now
65 °F

Clear.


Feels Like: 65 °F
Forecast: 57 / 80 °F
Wind: 3 mph from Southeast

Location: Fort Campbell U. S. Army Airfield

Current Time: May 4, 2015 at 12:04:01 AM

Latest Report: May 3, 2015 at 10:58 PM


Visibility: 10 mi

Pressure: 30.09 "Hg

Humidity: 59%

Dew point: 50 °F

Location of HopkinsvilleLocation

Historic Weather in Hopkinsville — Graph

°F

Hopkinsville temperature yesterday

Maximum temperature yesterday: 79 °F (at 3:58 PM)
Minimum temperature yesterday: 53 °F (at 5:58 AM)
Average temperature yesterday: 67 °F

Past Weeks' High & Low Weather Summary

 TemperatureHumidityPressure
High80 °F (Apr 25, 3:58 PM)100% (Apr 19, 7:02 AM)30.17 "Hg (Apr 19, 7:02 AM)
Low41 °F (Apr 23, 6:58 AM)25% (Apr 24, 11:58 AM)29.45 "Hg (Apr 25, 4:58 PM)
Average58 °F66%29.90 "Hg
* Reported Apr 18 10:04 PM — May 3 10:58 PM, Hopkinsville, Weather by CustomWeather, © 2015

Note: Actual official high and low records may vary slightly from our data, if they occured in-between our weather recording intervals... More about our weather records

Advertising

Hopkinsville weather history for previous 24 hours

 ConditionsComfort  
Time TempWeatherWind HumidityBarometerVisibility
10:58 PM
Sun, May 3
65 °FClear.3 mph59%30.09 "Hg10 mi
9:58 PM68 °FClear.3 mph52%30.09 "Hg10 mi
8:58 PM70 °FClear.3 mph48%30.09 "Hg10 mi
7:58 PM71 °FClear.3 mph45%30.06 "Hg10 mi
6:58 PM74 °FSunny.8 mph48%30.06 "Hg10 mi
5:58 PM77 °FSunny.10 mph44%30.06 "Hg10 mi
4:58 PM78 °FSunny.6 mph38%30.06 "Hg10 mi
3:58 PM79 °FSunny.13 mph37%30.06 "Hg10 mi
2:58 PM78 °FSunny.8 mph38%30.06 "Hg10 mi
1:58 PM77 °FPassing clouds.9 mph40%30.09 "Hg10 mi
12:58 PM76 °FScattered clouds.8 mph44%30.11 "Hg10 mi
11:58 AM76 °FSunny.10 mph42%30.11 "Hg10 mi
10:58 AM75 °FSunny.8 mph42%30.12 "Hg10 mi
9:58 AM73 °FPassing clouds.7 mph50%30.12 "Hg10 mi
8:58 AM65 °FPassing clouds.3 mph64%30.11 "Hg10 mi
7:58 AM60 °FPartly sunny.No wind74%30.11 "Hg7 mi
6:58 AM53 °FSunny.2 mph90%30.10 "Hg10 mi
5:58 AM53 °FFog.2 mph89%30.08 "Hg4 mi
4:58 AM53 °FPassing clouds.No wind87%30.08 "Hg7 mi
3:58 AM54 °FClear.No wind84%30.07 "Hg5 mi
2:58 AM55 °FClear.1 mph83%30.06 "Hg4 mi
1:58 AM56 °FClear.No wind81%30.06 "Hg6 mi
12:58 AM57 °FClear.No wind78%30.06 "Hg10 mi
Weather by CustomWeather, © 2015

See weather overviewHow to use our weather pages